Rbgn^[z[y[W
メイン
   新天体発見情報
     Comet C/2024 L5 (ATLAS)
投稿するにはまず登録を

スレッド表示 | 新しいものから 前のトピック | 次のトピック | 下へ
投稿者 スレッド
佐藤裕久
投稿日時: 2024-7-29 0:13
モデレータ
登録日: 2005-6-12
居住地: 日本
投稿: 2559
オンライン
Comet C/2024 L5 (ATLAS)

6月14.94-14.96日UT、南アフリカ Sutherlandにある小惑星地球衝突最終警報システム Asteroid 
Terrestrial-impact Last Alert System (ATLAS)調査プログラムのコースに0.5-m Schmidt 反射望遠
鏡で得た、CCD画像から小惑星状天体を発見した。
その後、佐藤英貴氏(東京都文京区, 6月16.66日UT、60-秒露出7枚のスタック, 0.51-m f/6.8 アストロ
グラフ, Siding Spring, NSW, オーストラリア, 遠隔操作: 強く集光した 10"の外側のコマが見える
が尾はなかった。5".4の円形範囲で測定した光度は17.1等であった)らCCD位置観測者によって彗星状と
観測された。

彗星機能の報告は次のとおり、

OC   Date        Reporter           Coma    Tail    PA          Exposures
W88  2024-06-27  N. Paul           10"                           15x50s
W88  2024-07-05  N. Paul            6".7                         15x50s
X07  2024-07-18  F. D. Romanov      9"        7"    80           17x60s

発見位置は次のとおり、

     2024 UT             R.A. (2000) Decl.       Mag.
     June 14.94445   17 08 35.68   -38 02 46.9   17.6
          14.94764   17 08 35.21   -38 02 46.6   17.6
          14.95319   17 08 34.36   -38 02 45.8   17.7
          14.96322   17 08 32.87   -38 02 45.3   17.7

MPCの双曲線軌道要素、位置推算表は次のとおり、

Orbital elements:
    C/2024 L5 (ATLAS)                                                           
Epoch 2024 Mar. 31.0 TT = JDT 2460400.5                                         
T 2025 Mar. 10.29035 TT                                 Rudenko                 
q   3.4327520            (2000.0)            P               Q                  
z  -0.0113015      Peri.  290.49870     -0.86062913     -0.48607709             
 +/-0.0003066      Node   139.17231     -0.33593547     +0.76597893             
e   1.0387952      Incl.  166.57322     -0.38270726     +0.42072002             
From 148 observations 2024 June 14-July 18, mean residual 0".5.                 
                                                                                
Ephemeris:
Date    TT    R. A. (2000) Decl.     Delta      r    Elong.  Phase   m1
2024 06 20    16 56 07.2 -37 52 28   3.2419  4.2151   160.9     4.5  17.8
...
2024 07 05    16 20 53.9 -36 45 02   3.2751  4.1381   143.7     8.4  17.7
...
2024 07 13    16 04 21.3 -35 52 19   3.3323  4.0982   133.4    10.4  17.7
...
2024 07 19    15 53 19.2 -35 08 40   3.3900  4.0688   125.8    11.7  17.7
2024 07 20    15 51 36.2 -35 01 13   3.4008  4.0639   124.5    11.9  17.7
2024 07 21    15 49 55.2 -34 53 43   3.4118  4.0590   123.3    12.1  17.7
...
2024 07 27    15 40 33.7 -34 08 31   3.4832  4.0302   115.8    13.1  17.8
...
2024 08 04    15 30 01.4 -33 09 28   3.5905  3.9926   106.1    14.1  17.8
...
2024 08 19    15 15 46.8 -31 30 32   3.8131  3.9244    88.8    14.9  17.8

(MPEC 2024-O15、CBET 5418)

スレッド表示 | 新しいものから 前のトピック | 次のトピック | トップ

投稿するにはまず登録を
 
© 1999 Tsutomu Seki.